Regional Weather Roundup
Issued by NWS

Home | Current Version | Previous Version | Graphics & Text | Print | Product List | Glossary On
Versions: 1 2 3 4 5 6 7 8 9 10 11 12 13 14 15 16 17 18 19 20 21 22 23 24 25 26 27 28 29 30 31 32 33 34 35 36 37 38 39 40 41 42 43 44 45 46 47 48 49 50
000
ASUS43 KDTX 242301
RWRMI
MICHIGAN HOURLY REGIONAL WEATHER ROUNDUP
NATIONAL WEATHER SERVICE DETROIT/PONTIAC MI
600 PM EST FRI FEB 24 2017

NOTE: "FAIR" INDICATES FEW OR NO CLOUDS BELOW 12,000 FEET WITH NO
SIGNIFICANT WEATHER AND/OR OBSTRUCTION TO VISIBILITY.

MIZ047>049-052>055-059>063-066>070-074>076-081>083-250000-
SOUTHEAST LOWER MICHIGAN

CITY           SKY/WX    TMP DP  RH WIND       PRES   REMARKS
ADRIAN         CLOUDY    61  56  83 SW6       29.49R
ALMA           CLOUDY    38  38  97 NE3       29.46S
ANN ARBOR      CLOUDY    56  55  97 CALM      29.48S
BAD AXE        CLOUDY    41  41 100 NE5       29.48R FOG
CARO           CLOUDY    46  45  99 CALM      29.45S FOG
DETROIT CITY   CLOUDY    59  55  87 SW6       29.49S
DETROIT        CLOUDY    65  55  70 SW16      29.49S
FLINT          CLOUDY    61  52  72 S7        29.44F
GROSSE ILE     CLOUDY    53  46  78 S13G22    29.47F
HILLSDALE      CLOUDY    63  54  72 S10G16    29.46F
HOWELL         MOCLDY    61  51  69 S9        29.45F

CITY           SKY/WX    TMP DP  RH WIND       PRES   REMARKS
JACKSON        CLOUDY    63  55  75 S10       29.46S
LAMBERTVILLE   CLOUDY    68  54  59 SW9G20    29.48R
LANSING        TSTM      53  50  89 SE6       29.43F
LAPEER         CLOUDY    58  53  81 S10G16    29.45F
MASON          CLOUDY    58  56  92 SE8       29.43F
MONROE         CLOUDY    66  55  67 S12G23    29.48R
MT. CLEMENS    CLOUDY    55  55  97 CALM      29.46S
PONTIAC        CLOUDY    60  50  69 S5        29.47F
PORT HOPE        N/A     38  38 100 NE10G21   29.48R WCI  31
PORT HURON     CLOUDY    55  50  82 S5        29.48F
TRI CITIES     CLOUDY    39  39 100 NE8       29.46S WCI  33
MIDLAND        CLOUDY    38  37  95 W7        29.48R WCI  33
TROY           CLOUDY    57  52  83 CALM      29.50F
SAGINAW HB     FOG       41  37  87 N6        29.45F VSB 1
$$
MIZ043>046-050>051-056>058-064>065-071>073-077>080-250000-
SOUTHWEST LOWER MICHIGAN

CITY           SKY/WX    TMP DP  RH WIND       PRES   REMARKS
BATTLE CREEK   LGT RAIN  59  57  93 SW6       29.43R
BENTON HARBOR  FOG       44  42  93 W12       29.45R VSB 3/4
BIG RAPIDS     MIX PCPN  37  36  96 E5        29.44R WCI  33
COLDWATER      CLOUDY    64  55  71 S10       29.44S
FREMONT        DRIZZLE   38  38 100 CALM      29.43R
HOLLAND        CLOUDY    45  43  93 CALM      29.42R
GRAND RAPIDS   CLOUDY    43  41  93 E7        29.41F FOG
IONIA          DRIZZLE   41  41  99 NE5       29.42S
KALAMAZOO      CLOUDY    60  55  83 S10       29.43S
LUDINGTON      LGT RAIN  34  34 100 N7        29.44F WCI  28
MARSHALL       LGT RAIN  63  56  79 S10G20    29.43S
MOUNT PLEASANT CLOUDY    38  37  98 NE5       29.46F WCI  34
MUSKEGON       CLOUDY    42  40  92 N3        29.44R
SOUTH HAVEN    FOG       43  43  99 W7        29.44S VSB 1/4
$$
MIZ016>042-250000-
NORTHERN LOWER MICHIGAN

CITY           SKY/WX    TMP DP  RH WIND       PRES   REMARKS
ALPENA         RAIN      33  33 100 E10       29.56R FOG     WCI  25
BEAVER ISLAND  MIX PCPN  29  29  99 NE12G20   29.61S WCI  20
BELLAIRE       LGT SNOW  35  32  90 NE8       29.52F WCI  28
CADILLAC       MIX PCPN  33  32  96 NE8       29.45R WCI  26
CHARLEVOIX     CLOUDY    32  31  95 NE12      29.57F WCI  23
FRANKFORT      DRIZZLE   35  34  96 CALM      29.50S
GAYLORD        CLOUDY    33  31  92 NE15G25   29.48F WCI  23
GRAYLING       LGT SNOW  34  32  94 E9        29.49F WCI  26
HARBOR SPRINGS LGT SNOW  31  30  94 E16G22    29.56S WCI  20
HOUGHTON LAKE  LGT RAIN  34  32  92 E15       29.47S FOG     WCI  24
MANISTEE       MIX PCPN  35  34  96 N7        29.46F FOG     WCI  29
OSCODA         MIX PCPN  36  35  97 NE14      29.50F WCI  27
PELLSTON       LGT SNOW  30  27  88 E13G23    29.59S VSB 3/4 WCI  20
ROGERS CITY    MIX PCPN  32  31  95 E10G16    29.60F WCI  24
TRAVERSE CITY  LGT RAIN  36  33  89 NE8       29.49F FOG     WCI  30
$$
MIZ007>008-015-250000-
EASTERN UPPER MICHIGAN

CITY           SKY/WX    TMP DP  RH WIND       PRES   REMARKS
KINROSS        FLURRIES  28  23  81 NE6       29.64R WCI  22
MACKINAC ISLAN CLOUDY    28  26  89 NE18G24   29.60F WCI  16
NEWBERRY       CLOUDY    24  23  96 NE12G18   29.63F FOG     WCI  13
S. S. MARIE    CLOUDY    29  21  72 NE14G23   29.62F WCI  18
MUNISING         N/A     26  24  92 N17       29.69F WCI  13
$$
MIZ004>006-011>014-085-250000-
CENTRAL UPPER MICHIGAN

CITY           SKY/WX    TMP DP  RH WIND       PRES   REMARKS
MANISTIQUE     LGT SNOW  26  26  97 N12G20    29.63S WCI  16
ESCANABA       LGT SNOW  25  23  92 N8G17     29.65R FOG     WCI  16
MENOMINEE      MIX PCPN  25  23  92 N14G20    29.62S FOG     WCI  13
SAWYER-GWINN   LGT SNOW  21  19  93 NE24      29.68F WCI   4
$$
MIZ001>003-009>011-084-250000-
WESTERN UPPER MICHIGAN

CITY           SKY/WX    TMP DP  RH WIND       PRES   REMARKS
IRON MOUNTAIN  FRZ RAIN  22  16  78 N18       29.65S WCI   7
HOUGHTON       LGT SNOW  20  13  74 NE13      29.77F WCI   7
COPPER HARBOR    N/A     23  17  78 E22G29    29.80F WCI   8
IRONWOOD       SNOW      18  14  84 N10       29.80S VSB 1/2 WCI   6
$$

ABBREVIATIONS USED IN REMARKS
   TC - TEMPERATURE IN CELSIUS
  WCI - WIND CHILL INDEX
   HX - HEAT INDEX
  VSB - VISIBILITY




USA.gov is the U.S. government's official web portal to all federal, state and local government web resources and services.